Weather History for St. Thomas, VI

Change the Weather History Date:

Wednesday, November 7, 2012

  Actual Average Record
Temperature  
Mean Temperature 82 °F 82 °F  
Max Temperature 86 °F 88 °F 93 °F (1993)
Min Temperature 77 °F 76 °F 71 °F (1972)
Degree Days  
Heating Degree Days 0 0  
Month to date heating degree days 0 0  
Since 1 July heating degree days 0 0  
Cooling Degree Days 17 17  
Month to date cooling degree days 118 119  
Year to date cooling degree days 5021 5230  
Growing Degree Days 32 (Base 50)    
Moisture  
Dew Point 75 °F    
Average Humidity 83    
Maximum Humidity 91    
Minimum Humidity 74    
Precipitation  
Precipitation 0.00 in 0.20 in 3.79 in (1984)
Month to date precipitation 0.54 1.40  
Year to date precipitation 28.31 32.55  
Sea Level Pressure  
Sea Level Pressure 29.90 in    
Wind  
Wind Speed 8 mph (ESE)    
Max Wind Speed 15 mph    
Max Gust Speed 18 mph    
Visibility 10 miles    
Events      
T = Trace of Precipitation, MM = Missing Value Source: NWS Daily Summary

Daily Weather History Graph

Daily Weather History Graph

Search for Another Location

Airport:

Trip Planner

Search our weather history database for the weather conditions in past years. The results will help you decide how hot, cold, wet, or windy it might be!

Date:

Astronomy

Nov. 07, 2012 Rise Set
Actual Time 6:22 AM AST 5:44 PM AST
Civil Twilight 5:59 AM AST 6:07 PM AST
Nautical Twilight 5:33 AM AST 6:33 PM AST
Astronomical Twilight 5:07 AM AST 6:59 PM AST
Moon 12:09 AM AST (11/7) 12:58 PM AST (11/7)
Length of Visible Light 12h 07m
Length of Day
11h 22m
Last Quarter, 43% of the Moon is Illuminated
Nov 7
Last Quarter
Nov 13
New
Nov 20
First Quarter
Nov 28
Full
Dec 6
Last Quarter

Hourly Weather History & Observations

Time (AST) Temp. Heat Index Dew Point Humidity Pressure Visibility Wind Dir Wind Speed Gust Speed Precip Events Conditions
12:53 AM 79.0 °F - 75.0 °F 88% 29.91 in 10.0 mi East 6.9 mph - N/A   Clear
1:53 AM 78.1 °F - 73.9 °F 87% 29.89 in 10.0 mi East 5.8 mph - N/A   Clear
2:53 AM 77.0 °F - 73.0 °F 88% 29.87 in 10.0 mi East 4.6 mph - N/A   Clear
3:53 AM 78.1 °F - 73.9 °F 87% 29.87 in 10.0 mi East 5.8 mph - N/A   Scattered Clouds
4:53 AM 78.1 °F - 73.9 °F 87% 29.87 in 10.0 mi East 5.8 mph - N/A   Clear
5:53 AM 78.1 °F - 73.9 °F 87% 29.89 in 10.0 mi East 3.5 mph - N/A   Clear
6:53 AM 79.0 °F - 75.0 °F 88% 29.91 in 10.0 mi East 6.9 mph - N/A   Partly Cloudy
7:53 AM 82.9 °F 90.2 °F 75.0 °F 77% 29.93 in 10.0 mi SE 6.9 mph - N/A   Clear
8:53 AM 84.0 °F 91.9 °F 75.0 °F 74% 29.94 in 10.0 mi SE 10.4 mph - N/A   Partly Cloudy
9:53 AM 84.9 °F 94.1 °F 75.9 °F 74% 29.95 in 10.0 mi SE 12.7 mph - N/A   Partly Cloudy
10:53 AM 84.9 °F 93.3 °F 75.0 °F 72% 29.93 in 10.0 mi SE 13.8 mph - N/A   Clear
11:53 AM 84.9 °F 93.3 °F 75.0 °F 72% 29.91 in 10.0 mi SE 11.5 mph - N/A   Clear
12:53 PM 84.9 °F 93.3 °F 75.0 °F 72% 29.90 in 10.0 mi SE 9.2 mph - N/A   Clear
1:53 PM 84.9 °F 94.1 °F 75.9 °F 74% 29.88 in 10.0 mi SE 12.7 mph - N/A   Partly Cloudy
2:53 PM 84.9 °F 93.3 °F 75.0 °F 72% 29.87 in 10.0 mi SE 13.8 mph - N/A   Clear
3:53 PM 84.9 °F 93.3 °F 75.0 °F 72% 29.87 in 10.0 mi SE 11.5 mph - N/A   Scattered Clouds
4:53 PM 84.0 °F 91.9 °F 75.0 °F 74% 29.87 in 10.0 mi SE 12.7 mph - N/A   Partly Cloudy
5:53 PM 82.9 °F 90.2 °F 75.0 °F 77% 29.88 in 10.0 mi SE 9.2 mph - N/A   Clear
6:53 PM 82.0 °F 88.6 °F 75.0 °F 79% 29.90 in 10.0 mi SE 9.2 mph - N/A   Partly Cloudy
7:53 PM 80.1 °F 85.1 °F 75.0 °F 85% 29.92 in 10.0 mi East 3.5 mph - N/A   Scattered Clouds
8:53 PM 80.1 °F 85.1 °F 75.0 °F 85% 29.93 in 10.0 mi ENE 4.6 mph - N/A   Scattered Clouds
9:53 PM 80.1 °F 85.1 °F 75.0 °F 85% 29.94 in 10.0 mi East 4.6 mph - N/A   Scattered Clouds
10:53 PM 79.0 °F - 73.9 °F 84% 29.94 in 10.0 mi Calm Calm - N/A   Clear
11:53 PM 79.0 °F - 73.9 °F 84% 29.93 in 10.0 mi East 3.5 mph - N/A   Clear